This is the latest recevied weather packets stored in our database for station/object SR9WXGR. If no packets are shown the sender has not sent any weather packets the latest 10 day(s).
| Time | Temp. | Humidity | Pressure | Rain* | Wind** | Luminosity | Snow |
|---|---|---|---|---|---|---|---|
| 1777984500 | 26.67° C | 17% | 971 hPa | - | - | - | - |
| 1777980901 | 25.56° C | 18% | 971 hPa | - | - | - | - |
| 1777977300 | 23.89° C | 21% | 971 hPa | - | - | - | - |
| 1777973701 | 22.78° C | 24% | 972 hPa | - | - | - | - |
| 1777970101 | 20.56° C | 25% | 972 hPa | - | - | - | - |
| 1777966502 | 20° C | 27% | 973 hPa | - | - | - | - |
| 1777962901 | 17.78° C | 30% | 973 hPa | - | - | - | - |
| 1777959301 | 15° C | 34% | 973 hPa | - | - | - | - |
| 1777955701 | 12.78° C | 39% | 974 hPa | - | - | - | - |
| 1777952101 | 10.56° C | 41% | 974 hPa | - | - | - | - |
| 1777948501 | 11.67° C | 39% | 974 hPa | - | - | - | - |
| 1777944901 | 12.78° C | 36% | 974 hPa | - | - | - | - |
| 1777941301 | 15° C | 32% | 974 hPa | - | - | - | - |
| 1777937701 | 15.56° C | 29% | 974 hPa | - | - | - | - |
| 1777934101 | 17.78° C | 26% | 975 hPa | - | - | - | - |
| 1777930501 | 18.89° C | 22% | 975 hPa | - | - | - | - |
| 1777926901 | 20° C | 22% | 974 hPa | - | - | - | - |
| 1777923300 | 20.56° C | 21% | 974 hPa | - | - | - | - |
| 1777919701 | 22.78° C | 21% | 974 hPa | - | - | - | - |
| 1777916101 | 25.56° C | 18% | 973 hPa | - | - | - | - |
| 1777912501 | 30.56° C | 14% | 973 hPa | - | - | - | - |
| 1777908900 | 31.67° C | 13% | 973 hPa | - | - | - | - |
| 1777905300 | 30.56° C | 15% | 974 hPa | - | - | - | - |
| 1777901701 | 27.78° C | 18% | 974 hPa | - | - | - | - |
| 1777898100 | 25° C | 20% | 975 hPa | - | - | - | - |
* Rain since midnight (hover to see other rain measurements)
** Current wind speed in m/s (hover to see current wind gust speed)